[[{"header":{"parameterUnit":"m.s-1","parameterCategory":2,"la1":30.2992,"la2":30.254,"lo1":-89.0895,"lo2":-89.0443,"dy":0.0025,"dx":0.0025,"nx":19,"ny":19,"refTime":"2026-05-15T21:00:00:Z","depth":"0","parameterNumber":2,"parameterNumberName":"U-component_of_CURRENTS"},"data":[0,0,0,-0.0108,-0.0107,0.0014,0.0015,0.0329,0.0332,0,0,0,0,0,0,0,0,0,0,0,-0.0146,-0.0146,-0.0109,-0.0107,0.0014,0.0015,0.0328,0.0332,0,0,0,0,0,0,0,0,0,0,0,-0.0146,-0.0146,-0.0146,-0.0106,0.0014,0.0015,0.0328,0.0205,0,0,0,0,0,0,0,0,0,0,0.0071,0.0018,-0.0146,-0.0146,-0.0106,0.0013,0.0015,0.0197,0.0212,0.031,0,0.0308,0,0.0317,0.0354,0.0355,0,0,0,-0.0075,0.0005,0.0015,-0.0146,-0.0105,0.0013,-0.0032,0.0205,0.0222,0.0331,0.0312,0.0323,0.0322,0.0356,0.0357,0.0779,0.0781,0,0,-0.0082,-0.0089,0.0002,0.0025,-0.0096,-0.0036,-0.0028,0.0214,0.024,0.0313,0.0329,0.0327,0.0358,0.036,0.0777,0.078,0,0,0,-0.0122,-0.0094,-0.0092,0.0013,0.0016,-0.0033,-0.0024,0.023,0.0222,0.0332,0.0331,0.036,0.0364,0.0775,0.0778,0.0956,0,0,0,-0.0125,-0.012,-0.0095,-0.0093,0.0009,0.0106,-0.0014,0.0206,0.0233,0.0329,0.036,0.0367,0.0772,0.0777,0.0946,0.0962,0,0,0,-0.0148,-0.0121,-0.0121,-0.0095,-0.0061,0.0101,0.011,0.0211,0.0232,0.0355,0.0368,0.0771,0.0776,0.0937,0.0949,0.1091,0,0,0,-0.0139,-0.0086,-0.0121,-0.0034,-0.0062,0.0113,0.0108,0.0254,0.0365,0.0361,0.0773,0.0778,0.0934,0.0941,0.1082,0.1054,0.1092,0,0,-0.0059,-0.0077,-0.0018,-0.0047,0.012,0.0099,0.0356,0.047,0.0484,0.0704,0.0713,0.0949,0.0948,0.1089,0.1354,0.1382,0,0,0,0.002,0.0065,0.011,0.0194,0.0278,0.0427,0.0529,0.0616,0.0823,0.0565,0.1005,0.0999,0.1082,0.1049,0.1074,0.1201,0.0802,0.0801,0.0801,0.0173,0.0208,0.0342,0.0421,0.0529,0.0698,0.0847,0.0994,0.0997,0.1126,0.1189,0.1467,0.144,0.1456,0.1592,0.1272,0.1272,0.1273,0.1273,0.0352,0.0434,0.0505,0.0632,0.0762,0.0959,0.1205,0.1258,0.152,0.1435,0.151,0.1292,0.1493,0.1628,0.1286,0.1284,0.1282,0.1281,0.128,0.0474,0.0508,0.0571,0.0732,0.0925,0.1087,0.1323,0.1492,0.1639,0.1751,0.1711,0.1706,0.178,0.1807,0.1808,0.1809,0.181,0.181,0.1811,0.0541,0.0607,0.0688,0.0829,0.0922,0.1107,0.1395,0.1561,0.1791,0.1875,0.1875,0.1915,0.1629,0.1557,0.1823,0.1821,0.1819,0.1818,0.1817,0.0651,0.0638,0.0757,0.0833,0.1031,0.1167,0.1396,0.1692,0.1896,0.2001,0.2192,0.1961,0.1888,0.1866,0.1801,0.2114,0.2114,0.2114,0.2115,0.0685,0.07,0.0823,0.0937,0.1091,0.1218,0.1425,0.1679,0.2086,0.2303,0.2395,0.2301,0.2283,0.2227,0.2197,0.2136,0.2528,0.2529,0.253,0.0728,0.0758,0.0853,0.0963,0.1119,0.1251,0.1376,0.1612,0.2231,0.2563,0.2602,0.2584,0.2457,0.2417,0.2319,0.2267,0.2159,0,0]},{"header":{"parameterUnit":"m.s-1","parameterCategory":2,"la1":30.2992,"la2":30.254,"lo1":-89.0895,"lo2":-89.0443,"dy":0.0025,"dx":0.0025,"nx":19,"ny":19,"refTime":"2026-05-15T21:00:00:Z","depth":"0","parameterNumber":3,"parameterNumberName":"V-component_of_CURRENTS"},"data":[0,0,0,-0.0094,-0.0092,0.0061,0.0062,0.0283,0.0285,0,0,0,0,0,0,0,0,0,0,0,-0.0147,-0.0147,-0.0094,-0.0092,0.0061,0.0063,0.0283,0.0285,0,0,0,0,0,0,0,0,0,0,0,-0.0147,-0.0147,-0.0146,-0.0092,0.0061,0.0063,0.0283,0.0169,0,0,0,0,0,0,0,0,0,0,0.0021,-0.0052,-0.0147,-0.0146,-0.0091,0.0061,0.0063,0.0164,0.0176,0.021,0,0.0211,0,0.0238,0.0297,0.0298,0,0,0,-0.0057,-0.0063,-0.002,-0.0146,-0.009,0.006,0.0002,0.0171,0.0185,0.0226,0.0214,0.0222,0.0242,0.0298,0.0299,0.052,0.0521,0,0,-0.0065,-0.011,-0.0031,-0.0013,-0.0079,-0.0003,0.0006,0.018,0.0181,0.0215,0.0227,0.0245,0.0299,0.0301,0.0519,0.052,0,0,0,-0.0113,-0.0116,-0.0078,-0.0022,-0.0004,0.0,0.0012,0.0175,0.0186,0.023,0.0248,0.03,0.0303,0.0518,0.052,0.0751,0,0,0,-0.0117,-0.0146,-0.0083,-0.0106,-0.0009,0.0081,0.0002,0.0175,0.0195,0.0247,0.0301,0.0304,0.0517,0.0519,0.0742,0.0842,0,0,0,-0.0149,-0.015,-0.0141,-0.0109,-0.0058,0.0078,0.0103,0.0181,0.0204,0.0298,0.0305,0.0516,0.0518,0.0734,0.0828,0.0929,0,0,0,-0.0185,-0.0163,-0.0143,-0.0081,-0.006,0.0124,0.0102,0.023,0.0316,0.0301,0.0517,0.0519,0.0732,0.082,0.0921,0.0948,0.099,0,0,-0.0168,-0.0162,-0.0112,-0.009,0.0115,0.0107,0.0341,0.0414,0.0364,0.0465,0.047,0.0745,0.0827,0.0928,0.1094,0.1132,0,0,0,-0.0109,-0.0053,0.0005,0.013,0.0239,0.0434,0.0491,0.0523,0.0631,0.0416,0.0732,0.0775,0.0832,0.0829,0.086,0.0594,0.0531,0.0531,0.0531,-0.0082,0.0031,0.0194,0.0371,0.0493,0.0675,0.081,0.0864,0.0787,0.0851,0.0955,0.1176,0.1177,0.1199,0.0927,0.0942,0.0943,0.0944,0.0945,0.0075,0.021,0.0384,0.0576,0.0782,0.0978,0.1163,0.116,0.1302,0.1167,0.1211,0.1062,0.1247,0.0943,0.0959,0.0957,0.0955,0.0953,0.0952,0.0132,0.0226,0.0348,0.0674,0.0966,0.1171,0.144,0.1508,0.1495,0.1587,0.1501,0.1496,0.1234,0.1581,0.1583,0.1583,0.1584,0.1585,0.1586,0.0146,0.0289,0.0499,0.0797,0.1016,0.1315,0.1602,0.1722,0.1798,0.1753,0.1752,0.128,0.1369,0.1349,0.16,0.1597,0.1596,0.1594,0.1593,0.0317,0.032,0.0631,0.0842,0.1331,0.1613,0.1808,0.2029,0.2097,0.213,0.1614,0.1828,0.1747,0.1719,0.1705,0.2034,0.2034,0.2034,0.2034,0.041,0.0441,0.0871,0.121,0.1572,0.1806,0.2106,0.222,0.2003,0.1778,0.1646,0.1471,0.1465,0.1352,0.1332,0.1303,0.1523,0.1522,0.152,0.0621,0.0695,0.1047,0.1339,0.1736,0.1996,0.2226,0.2265,0.179,0.1467,0.128,0.1302,0.1003,0.1014,0.0793,0.0787,0.0721,0,0]}],[{"header":{"parameterUnit":"m.s-1","parameterCategory":2,"la1":30.2992,"la2":30.254,"lo1":-89.0895,"lo2":-89.0443,"dy":0.0025,"dx":0.0025,"nx":19,"ny":19,"refTime":"2026-05-15T21:00:00:Z","depth":"2","parameterNumber":2,"parameterNumberName":"U-component_of_CURRENTS"},"data":[0,0,0,0.0035,0.0035,0.0108,0.0109,0.0402,0.0405,0,0,0,0,0,0,0,0,0,0,0,0.0004,0.0003,0.0035,0.0035,0.0108,0.0109,0.0401,0.0405,0,0,0,0,0,0,0,0,0,0,0,0.0004,0.0003,0.0002,0.0035,0.0108,0.0109,0.0401,0.0306,0,0,0,0,0,0,0,0,0,0,0.0214,0.016,0.0003,0.0002,0.0036,0.0108,0.0109,0.03,0.0312,0.0413,0,0.0385,0,0.0392,0.0425,0.0426,0,0,0,0.0076,0.0149,0.0144,0.0002,0.0036,0.0107,0.0087,0.0305,0.0319,0.043,0.0389,0.0399,0.0397,0.0427,0.0428,0.0787,0.0788,0,0,0.0072,0.006,0.0133,0.0151,0.0009,0.0084,0.0088,0.0312,0.0327,0.039,0.0405,0.0401,0.0429,0.0431,0.0785,0.0787,0,0,0,0.0033,0.0057,0.0044,0.014,0.0132,0.0085,0.009,0.0318,0.0304,0.0408,0.0405,0.0431,0.0434,0.0783,0.0786,0.0945,0,0,0,0.0033,0.0031,0.004,0.0041,0.0124,0.0203,0.0092,0.0288,0.0313,0.0403,0.0431,0.0437,0.0781,0.0785,0.0937,0.0973,0,0,0,0.0008,0.0031,0.0016,0.0039,0.0049,0.0198,0.0199,0.0293,0.0312,0.0426,0.0438,0.078,0.0784,0.0929,0.0962,0.1035,0,0,0,0.0027,0.0052,0.0016,0.0078,0.0047,0.0205,0.0198,0.0335,0.0438,0.0432,0.0782,0.0786,0.0927,0.0955,0.1028,0.0884,0.0904,0,0,0.0084,0.0059,0.0106,0.0076,0.0235,0.0201,0.0432,0.0534,0.0536,0.0725,0.0732,0.0939,0.0961,0.1033,0.1109,0.1121,0,0,0,0.0146,0.0186,0.0227,0.0302,0.0374,0.0516,0.0598,0.0656,0.082,0.0602,0.0974,0.0983,0.1023,0.0923,0.0935,0.0804,0.0804,0.0803,0.0803,0.028,0.032,0.0449,0.0533,0.0634,0.077,0.0888,0.0987,0.098,0.1074,0.114,0.1337,0.1237,0.1243,0.1187,0.1188,0.1189,0.1189,0.119,0.0466,0.055,0.0628,0.0755,0.087,0.1046,0.1223,0.1239,0.1412,0.1347,0.1379,0.113,0.1264,0.1203,0.1201,0.1199,0.1197,0.1196,0.1195,0.0594,0.0629,0.0696,0.0871,0.1051,0.1185,0.1353,0.1451,0.1529,0.16,0.1444,0.1438,0.1388,0.1612,0.1612,0.1613,0.1613,0.1614,0.1614,0.0668,0.0739,0.0832,0.0985,0.1085,0.1231,0.1426,0.1512,0.1583,0.1589,0.1587,0.1477,0.1464,0.1412,0.1623,0.1621,0.162,0.1619,0.1619,0.0795,0.0777,0.0936,0.1023,0.121,0.1291,0.1442,0.1525,0.1627,0.1632,0.1577,0.1575,0.1493,0.148,0.1428,0.1631,0.1631,0.1631,0.1631,0.0837,0.0853,0.103,0.1159,0.1279,0.1339,0.1392,0.1423,0.149,0.1477,0.1484,0.1365,0.1366,0.127,0.1261,0.1201,0.1346,0.1346,0.1346,0.0907,0.0962,0.1089,0.1195,0.1314,0.1337,0.1284,0.1245,0.1276,0.1338,0.1473,0.1604,0.144,0.1439,0.1291,0.1279,0.1182,0,0]},{"header":{"parameterUnit":"m.s-1","parameterCategory":2,"la1":30.2992,"la2":30.254,"lo1":-89.0895,"lo2":-89.0443,"dy":0.0025,"dx":0.0025,"nx":19,"ny":19,"refTime":"2026-05-15T21:00:00:Z","depth":"2","parameterNumber":3,"parameterNumberName":"V-component_of_CURRENTS"},"data":[0,0,0,-0.025,-0.0247,-0.0069,-0.0068,0.0059,0.006,0,0,0,0,0,0,0,0,0,0,0,-0.0304,-0.0303,-0.025,-0.0247,-0.0069,-0.0068,0.0059,0.006,0,0,0,0,0,0,0,0,0,0,0,-0.0304,-0.0303,-0.0302,-0.0246,-0.0069,-0.0068,0.0059,-0.0046,0,0,0,0,0,0,0,0,0,0,-0.0205,-0.0252,-0.0303,-0.0302,-0.0245,-0.0069,-0.0068,-0.005,-0.004,-0.0056,0,-0.0028,0,0.0005,0.0064,0.0064,0,0,0,-0.0228,-0.026,-0.0212,-0.0301,-0.0244,-0.007,-0.0144,-0.0043,-0.0032,-0.0044,-0.0026,-0.0021,0.0007,0.0064,0.0065,0.0104,0.0104,0,0,-0.0238,-0.0272,-0.0219,-0.0204,-0.0199,-0.015,-0.0139,-0.0035,-0.0028,-0.0025,-0.0017,0.0009,0.0065,0.0065,0.0104,0.0104,0,0,0,-0.0279,-0.028,-0.023,-0.0211,-0.0177,-0.0145,-0.0132,-0.0031,-0.0014,-0.0016,0.001,0.0065,0.0066,0.0104,0.0104,0.0154,0,0,0,-0.0284,-0.0304,-0.0235,-0.0254,-0.0179,-0.0091,-0.0131,-0.0021,-0.0008,0.001,0.0065,0.0067,0.0104,0.0104,0.0153,0.0197,0,0,0,-0.0312,-0.0308,-0.0286,-0.0256,-0.0188,-0.0091,-0.0066,-0.0016,0.0006,0.0064,0.0067,0.0104,0.0104,0.0152,0.0194,0.0131,0,0,0,-0.0353,-0.0311,-0.0287,-0.0223,-0.019,-0.0078,-0.0066,0.002,0.0074,0.0066,0.0104,0.0104,0.0152,0.0192,0.0131,-0.0007,-0.0017,0,0,-0.0323,-0.0309,-0.0266,-0.024,-0.0111,-0.0102,-0.0006,0.0063,0.0057,0.0066,0.0069,0.0153,0.0194,0.0131,-0.0017,-0.0027,0,0,0,-0.027,-0.0228,-0.0186,-0.0104,-0.0039,0.0033,0.0082,0.0087,0.0124,0.0084,0.0136,0.016,0.0118,0.0033,0.0026,0.0103,0.0103,0.0103,0.0103,-0.0248,-0.0185,-0.0071,0.0023,0.0068,0.0121,0.0144,0.0146,0.0151,0.0162,0.0186,0.016,0.0071,0.0064,0.0158,0.0158,0.0158,0.0158,0.0158,-0.0157,-0.006,0.0015,0.014,0.0199,0.0249,0.0239,0.0222,0.0205,0.0227,0.0181,0.0075,0.0059,0.0162,0.0161,0.0161,0.016,0.016,0.016,-0.0124,-0.0052,0.0026,0.0181,0.029,0.0325,0.0295,0.028,0.0254,0.0231,0.008,0.0077,0.0178,0.0197,0.0197,0.0197,0.0197,0.0197,0.0197,-0.011,-0.0014,0.0116,0.0245,0.0342,0.0343,0.0346,0.029,0.019,0.0128,0.0125,0.0172,0.0171,0.0177,0.0196,0.0196,0.0196,0.0196,0.0197,-0.0014,0.0009,0.0152,0.0267,0.0414,0.0316,0.0319,0.0143,0.0093,0.0002,0.0016,0.002,-0.0022,-0.0018,-0.0018,-0.0051,-0.0051,-0.0051,-0.0051,0.0033,0.0069,0.0228,0.0375,0.0376,0.034,0.0176,0.0083,-0.0022,-0.0085,-0.0082,-0.0096,-0.0088,-0.0133,-0.0127,-0.0129,-0.019,-0.019,-0.0189,0.0122,0.0151,0.0232,0.0369,0.0402,0.0249,0.0083,0.01,-0.0034,-0.0183,0.0017,-0.0085,-0.0102,-0.009,-0.0157,-0.0148,-0.015,0,0]}],[{"header":{"parameterUnit":"m.s-1","parameterCategory":2,"la1":30.2992,"la2":30.254,"lo1":-89.0895,"lo2":-89.0443,"dy":0.0025,"dx":0.0025,"nx":19,"ny":19,"refTime":"2026-05-15T21:00:00:Z","depth":"4","parameterNumber":2,"parameterNumberName":"U-component_of_CURRENTS"},"data":[0,0,0,0.0504,0.0506,0.0591,0.0591,0.0538,0.0537,0,0,0,0,0,0,0,0,0,0,0,0.0467,0.0467,0.0504,0.0506,0.0591,0.0591,0.0538,0.0537,0,0,0,0,0,0,0,0,0,0,0,0.0466,0.0467,0.0468,0.0507,0.0591,0.0591,0.0538,0.0512,0,0,0,0,0,0,0,0,0,0,0.0449,0.0444,0.0467,0.0468,0.0507,0.0591,0.0591,0.0512,0.0514,0.0457,0,0.0479,0,0.0511,0.0531,0.0531,0,0,0,0.0496,0.0444,0.0467,0.0468,0.0508,0.0591,0.055,0.0514,0.0515,0.0458,0.0478,0.0478,0.051,0.053,0.053,0.0464,0.0464,0,0,0.0491,0.0476,0.0467,0.0468,0.0537,0.0547,0.0552,0.0517,0.0516,0.0478,0.0478,0.0509,0.053,0.0529,0.0464,0.0464,0,0,0,0.0485,0.0473,0.05,0.0468,0.05,0.055,0.0556,0.0518,0.0528,0.0477,0.0509,0.0529,0.0528,0.0464,0.0464,0.0516,0,0,0,0.0481,0.047,0.0498,0.0489,0.0502,0.0533,0.0557,0.053,0.0528,0.0509,0.0529,0.0527,0.0464,0.0464,0.0515,0.0563,0,0,0,0.0462,0.0468,0.0481,0.0488,0.0531,0.0535,0.0544,0.0531,0.0546,0.0531,0.0527,0.0464,0.0464,0.0514,0.0559,0.0574,0,0,0,0.0438,0.0456,0.048,0.051,0.053,0.0563,0.0545,0.0556,0.0546,0.0529,0.0464,0.0464,0.0513,0.0557,0.0573,0.0537,0,0,0,0.0444,0.0456,0.0474,0.0499,0.0545,0.0551,0.057,0.0548,0.0521,0.0462,0.0462,0.0515,0.0559,0.0574,0.0532,0,0,0,0,0.0466,0.0484,0.0502,0.0538,0.0561,0.0587,0.0569,0.0552,0.0528,0.0519,0.0499,0.0525,0.0533,0.0505,0.0463,0.0463,0.0463,0.0463,0.0463,0.0445,0.0479,0.0519,0.0561,0.0575,0.0594,0.0603,0.0572,0.0531,0.0526,0.0555,0.0588,0.0559,0.0525,0.0526,0.0526,0.0526,0.0526,0.0526,0.0477,0.0514,0.0543,0.06,0.0619,0.063,0.0621,0.0612,0.0609,0.0573,0.0576,0.0546,0.0531,0.053,0.0529,0.0529,0.0528,0.0528,0.0528,0.0486,0.051,0.0553,0.062,0.0658,0.0676,0.0696,0.0693,0.0671,0.0691,0.0644,0.0625,0.0636,0.0687,0.0687,0.0687,0.0688,0.0688,0.0688,0.0484,0.0526,0.058,0.0649,0.0676,0.0715,0.075,0.0754,0.075,0.0716,0.0714,0.0642,0.0637,0.0644,0.0692,0.0691,0.0691,0.069,0.069,0.0515,0.0536,0.0599,0.0636,0.0694,0.0702,0.0754,0.0774,0.0782,0.0773,0.0711,0.0709,0.069,0.0684,0.0692,0.0756,0.0756,0.0755,0,0.0524,0.0544,0.0611,0.0641,0.0661,0.0683,0.0704,0.0731,0.0732,0.071,0.0751,0.0678,0.0677,0.065,0.0644,0.0651,0,0,0,0.0545,0.0558,0.0593,0.0626,0.0632,0.0651,0.07,0.0703,0.0737,0.0761,0.0749,0.0751,0.0722,0.0705,0.0671,0.0664,0.0674,0,0]},{"header":{"parameterUnit":"m.s-1","parameterCategory":2,"la1":30.2992,"la2":30.254,"lo1":-89.0895,"lo2":-89.0443,"dy":0.0025,"dx":0.0025,"nx":19,"ny":19,"refTime":"2026-05-15T21:00:00:Z","depth":"4","parameterNumber":3,"parameterNumberName":"V-component_of_CURRENTS"},"data":[0,0,0,-0.0286,-0.0287,-0.04,-0.0401,-0.06,-0.0601,0,0,0,0,0,0,0,0,0,0,0,-0.0261,-0.0261,-0.0286,-0.0287,-0.04,-0.0401,-0.0599,-0.0601,0,0,0,0,0,0,0,0,0,0,0,-0.0261,-0.0261,-0.0262,-0.0288,-0.04,-0.0401,-0.0599,-0.051,0,0,0,0,0,0,0,0,0,0,-0.0397,-0.0364,-0.0261,-0.0262,-0.0288,-0.04,-0.0401,-0.0505,-0.0515,-0.0552,0,-0.0554,0,-0.056,-0.0612,-0.0613,0,0,0,-0.0326,-0.0355,-0.0364,-0.0262,-0.0288,-0.0399,-0.036,-0.0511,-0.0522,-0.0565,-0.0556,-0.0563,-0.0563,-0.0613,-0.0614,-0.0804,-0.0804,0,0,-0.032,-0.031,-0.0356,-0.0371,-0.0298,-0.0356,-0.0363,-0.0517,-0.0535,-0.0557,-0.0567,-0.0567,-0.0614,-0.0616,-0.0803,-0.0804,0,0,0,-0.0276,-0.0306,-0.0312,-0.0363,-0.0367,-0.0358,-0.0367,-0.0529,-0.0524,-0.0569,-0.0569,-0.0615,-0.0617,-0.0802,-0.0803,-0.0816,0,0,0,-0.0274,-0.0277,-0.0308,-0.0308,-0.0363,-0.0443,-0.0375,-0.0514,-0.0531,-0.0568,-0.0615,-0.0619,-0.0801,-0.0803,-0.0813,-0.0732,0,0,0,-0.0259,-0.0276,-0.0278,-0.0306,-0.0333,-0.044,-0.0448,-0.0519,-0.0529,-0.0613,-0.0619,-0.08,-0.0802,-0.0811,-0.0732,-0.0677,0,0,0,-0.0262,-0.0256,-0.0278,-0.0289,-0.0332,-0.0396,-0.0447,-0.0528,-0.0599,-0.0616,-0.0801,-0.0803,-0.0811,-0.0732,-0.0678,-0.0567,0,0,0,-0.0249,-0.0255,-0.0262,-0.0283,-0.0326,-0.0385,-0.0473,-0.0586,-0.0646,-0.0758,-0.0763,-0.0814,-0.0732,-0.0677,-0.0689,0,0,0,0,-0.0256,-0.0267,-0.0285,-0.032,-0.0365,-0.0438,-0.0543,-0.0613,-0.0757,-0.0688,-0.0852,-0.0798,-0.0763,-0.0706,-0.0813,-0.0813,-0.0812,-0.0812,-0.0812,-0.0261,-0.0281,-0.0313,-0.0354,-0.0397,-0.0503,-0.057,-0.069,-0.0771,-0.0852,-0.0841,-0.084,-0.079,-0.0923,-0.0924,-0.0924,-0.0924,-0.0924,-0.0924,-0.0269,-0.0289,-0.0335,-0.0366,-0.0431,-0.051,-0.0637,-0.0711,-0.0804,-0.0888,-0.0857,-0.0765,-0.0926,-0.0926,-0.0925,-0.0925,-0.0925,-0.0925,-0.0925,-0.0272,-0.0282,-0.0308,-0.036,-0.0423,-0.0511,-0.0544,-0.0657,-0.0763,-0.0761,-0.0689,-0.0806,-0.0763,-0.0773,-0.0772,-0.0772,-0.0771,-0.0771,-0.0771,-0.026,-0.0285,-0.0312,-0.0352,-0.0379,-0.0414,-0.0491,-0.0513,-0.0614,-0.0621,-0.0747,-0.0786,-0.0791,-0.0753,-0.0762,-0.0764,-0.0765,-0.0766,-0.0766,-0.0277,-0.0278,-0.0301,-0.0319,-0.0345,-0.0331,-0.0378,-0.0376,-0.0371,-0.0376,-0.0544,-0.0557,-0.0508,-0.0518,-0.0469,-0.0393,-0.0392,-0.039,0,-0.0292,-0.0293,-0.0316,-0.0319,-0.0292,-0.0296,-0.0232,-0.0245,-0.0319,-0.0316,-0.0411,-0.0603,-0.0612,-0.0563,-0.057,-0.0514,0,0,0,-0.0334,-0.0322,-0.0335,-0.032,-0.0278,-0.0228,-0.0213,-0.0201,-0.0304,-0.0258,-0.0352,-0.0362,-0.0603,-0.0737,-0.0691,-0.0697,-0.0631,0,0]}]]